723  
ASUS43 KDTX 212101  
RWRMI  
MICHIGAN HOURLY REGIONAL WEATHER ROUNDUP  
NATIONAL WEATHER SERVICE DETROIT/PONTIAC MI  
400 PM EST TUE NOV 21 2017  
 
NOTE: "FAIR" INDICATES FEW OR NO CLOUDS BELOW 12,000 FEET WITH NO  
SIGNIFICANT WEATHER AND/OR TO VISIBILITY
.  
 
MIZ047>049-052>055-059>063-066>070-074>076-081>083-212200-  
SOUTHEAST LOWER MICHIGAN  
 
CITY SKY/WX TMP DP RH WIND PRES REMARKS
 
ADRIAN CLOUDY 46 33 60 W12 29.84R  
ALMA CLOUDY 41 25 54 W13G21 29.80R  
ANN ARBOR LGT RAIN 45 36 70 W15 29.81R  
BAD AXE CLOUDY 40 32 73 SW13G18 29.75R WCI 33  
CARO CLOUDY 39 35 85 SW14 29.76R WCI 31  
DETROIT CITY CLOUDY 49 32 52 SW13 29.80R  
DETROIT CLOUDY 49 33 54 SW15 29.81R  
FLINT LGT RAIN 39 36 89 W14 29.81R WCI 31  
GROSSE ILE CLOUDY 48 33 57 W13G21 29.80R  
HILLSDALE RAIN 39 36 87 W14G22 29.84R WCI 31  
HOWELL LGT RAIN 40 38 92 W12G17 29.80R WCI 33  
 
CITY SKY/WX TMP DP RH WIND PRES REMARKS
 
JACKSON LGT RAIN 40 36 86 SW10 29.83R FOG WCI 33  
LAMBERTVILLE CLOUDY 50 34 53 W7 29.83R  
LANSING LGT RAIN 39 36 89 W15 29.83R WCI 31  
LAPEER LGT RAIN 39 36 87 W13G24 29.80R WCI 32  
MASON LGT RAIN 40 36 86 W9G21 29.82R WCI 34  
MONROE CLOUDY 49 33 54 W14G22 29.81R  
MT. CLEMENS CLOUDY 49 35 58 SW8 29.76R  
PONTIAC LGT RAIN 43 38 82 W20G25 29.79R  
PORT HOPE N/A 45 31 58 W9 29.71R  
PORT HURON RAIN 48 32 53 W14G22 29.77R  
TRI CITIES CLOUDY 42 27 55 W12G24 29.78R  
MIDLAND FAIR 42 25 50 W14G20 29.77R  
TROY LGT RAIN 48 37 65 W13G18 29.81R  
SAGINAW HB CLOUDY 39 34 81 SW13 29.77R WCI 32  

 
MIZ043>046-050>051-056>058-064>065-071>073-077>080-212200-  
SOUTHWEST LOWER MICHIGAN  
 
CITY SKY/WX TMP DP RH WIND PRES REMARKS
 
BATTLE CREEK LGT RAIN 38 35 89 W16G23 29.85R WCI 29  
BENTON HARBOR CLOUDY 40 27 59 NW10G16 29.89R WCI 33  
BIG RAPIDS CLOUDY 36 21 55 NW13 29.81R WCI 27  
COLDWATER LGT RAIN 38 37 94 SW12 29.85R WCI 30  
FREMONT CLOUDY 37 25 63 NW15G26 29.84R WCI 28  
HOLLAND CLOUDY 38 27 64 NW13G24 29.87R WCI 30  
GRAND RAPIDS CLOUDY 39 27 62 W18 29.83R WCI 30  
IONIA PTSUNNY 39 26 59 W14 29.82R WCI 31  
KALAMAZOO CLOUDY 39 34 82 SW8 29.85R WCI 33  
LUDINGTON CLOUDY 35 22 61 NW14G23 29.87R WCI 25  
MARSHALL CLOUDY 38 37 97 SW12G17 29.84R WCI 30  
MOUNT PLEASANT CLOUDY 41 23 48 W16 29.78R  
MUSKEGON CLOUDY 38 24 57 NW20G30 29.86R WCI 28  
SOUTH HAVEN CLOUDY 39 26 59 NW16 29.89R WCI 31  

 
MIZ016>042-212200-  
NORTHERN LOWER MICHIGAN  
 
CITY SKY/WX TMP DP RH WIND PRES REMARKS
 
ALPENA CLOUDY 36 23 59 NW10 29.75R WCI 28  
BEAVER ISLAND CLOUDY 31 20 65 NW20G28 29.83R WCI 18  
BELLAIRE CLOUDY 34 23 63 W10G21 29.82R WCI 26  
CADILLAC CLOUDY 33 22 64 NW14 29.79R WCI 23  
CHARLEVOIX CLOUDY 33 22 65 W20G33 29.84R WCI 21  
FRANKFORT CLOUDY 35 20 54 NW15G22 29.87R WCI 25  
GAYLORD CLOUDY 31 19 61 W10G23 29.75R WCI 22  
GRAYLING CLOUDY 32 21 63 W14G26 29.79R WCI 22  
HARBOR SPRINGS CLOUDY 32 20 62 NW14G24 29.80R WCI 22  
HOUGHTON LAKE CLOUDY 35 23 61 W15G24 29.77R WCI 25  
MANISTEE CLOUDY 35 21 56 NW16G25 29.86 WCI 25  
OSCODA CLOUDY 41 21 44 W14G20 29.72R  
PELLSTON CLOUDY 31 20 63 NW22G30 29.79R WCI 18  
ROGERS CITY CLOUDY 33 23 66 W15G28 29.76R WCI 23  
TRAVERSE CITY CLOUDY 35 19 52 W16G25 29.83R WCI 25  

 
MIZ007>008-015-212200-  
EASTERN UPPER MICHIGAN  
 
CITY SKY/WX TMP DP RH WIND PRES REMARKS
 
KINROSS FLURRIES 28 20 71 W23G32 29.73R WCI 14  
MACKINAC ISLAN CLOUDY 32 19 59 W24G35 29.76R WCI 19  
NEWBERRY CLOUDY 27 20 77 NW15G22 29.78R WCI 15  
S. S. MARIE LGT SNOW 30 22 72 NW24G32 29.72R WCI 16  
MUNISING N/A 29 23 78 NW24G41 29.87R WCI 15  

 
MIZ004>006-011>014-085-212200-  
CENTRAL UPPER MICHIGAN  
 
CITY SKY/WX TMP DP RH WIND PRES REMARKS
 
MANISTIQUE CLOUDY 27 14 59 NW22G31 29.85R WCI 12  
ESCANABA FLURRIES 28 16 60 NW16G25 29.90R WCI 16  
MENOMINEE CLOUDY 30 15 53 NW12G24 29.93R WCI 20  
SAWYER-GWINN FLURRIES 23 14 68 NW23 29.88R WCI 7  

 
MIZ001>003-009>011-084-212200-  
WESTERN UPPER MICHIGAN  
 
CITY SKY/WX TMP DP RH WIND PRES REMARKS
 
IRON MOUNTAIN CLOUDY 25 13 60 NW16 29.91R WCI 12  
HOUGHTON LGT SNOW 21 12 68 NW20 29.93R WCI 6  
COPPER HARBOR N/A 26 18 71 N25G36 29.91R WCI 11  
IRONWOOD FLURRIES 20 13 74 NW14G22 30.03R WCI 7  

 
 
ABBREVIATIONS USED IN REMARKS  
TC - TEMPERATURE IN CELSIUS  
WCI - WIND CHILL INDEX  
HX - HEAT INDEX  
VSB - VISIBILITY  
 
 
 
CLICK HERE TO GO TO PREVIOUS BULLETINS.

The Nexlab MI Page Main Text Page